Tracking 28790 objects as of 19-Apr-2024
HD Live streaming from Space Station
objects crossing your sky now

COSMOS 2251 DEB

Track COSMOS 2251 DEB now!
10-day predictions


NORAD ID: 34026
Int'l Code: 1993-036HM
Perigee: 770.1 km
Apogee: 1,296.1 km
Inclination: 73.8 °
Period: 105.7 minutes
Semi major axis: 7404 km
RCS: 0.0392 m2 (small)
Launch date: June 16, 1993
Source: Commonwealth of Independent States (former USSR) (CIS)
Launch site: PLESETSK MISSILE AND SPACE COMPLEX (PKMTR)

Note: This is SATELLITE DEBRIS
Your satellite tracking list
Your tracking list is empty




NASA's NSSDC Master Catalog

Two Line Element Set (TLE):
1 34026U 93036HM  24109.84869133  .00005024  00000-0  42371-2 0  9994
2 34026  73.7678 257.8249 0355229 219.0118 268.2280 13.62683624753105
Source of the keplerian elements: AFSPC